Tiempo cada hora Aberdour

Hoy, 24 Octubre, Sábado

Tiempo Temperatura Precipitaciones Viento Presión Humedad
00:00 +4°C° 0 mm 3 mps 738 mmHg 87%
01:00 +5°C° 0.1 mm 4 mps 737 mmHg 86%
02:00 +6°C° 0.1 mm 5 mps 736 mmHg 86%
03:00 +6°C° 0.1 mm 5 mps 734 mmHg 86%
04:00 +6°C° 0.3 mm 7 mps 733 mmHg 86%
05:00 +7°C° 0.3 mm 8 mps 732 mmHg 85%
06:00 +8°C° 0.3 mm 9 mps 731 mmHg 85%
07:00 +9°C° 1.2 mm 8 mps 731 mmHg 87%
08:00 +8°C° 1.2 mm 7 mps 731 mmHg 89%
09:00 +8°C° 1.2 mm 6 mps 731 mmHg 91%
10:00 +8°C° 0.5 mm 6 mps 731 mmHg 88%
11:00 +8°C° 0.5 mm 6 mps 731 mmHg 85%
12:00 +8°C° 0.5 mm 6 mps 731 mmHg 82%
13:00 +8°C° 0.1 mm 5 mps 731 mmHg 82%
14:00 +7°C° 0.1 mm 5 mps 731 mmHg 82%
15:00 +7°C° 0.1 mm 5 mps 730 mmHg 81%
16:00 +7°C° 0 mm 5 mps 730 mmHg 82%
17:00 +6°C° 0 mm 4 mps 730 mmHg 84%
18:00 +5°C° 0 mm 4 mps 730 mmHg 85%
19:00 +5°C° 0 mm 4 mps 730 mmHg 85%
20:00 +4°C° 0 mm 3 mps 730 mmHg 86%
21:00 +4°C° 0 mm 3 mps 730 mmHg 86%
22:00 +4°C° 0 mm 3 mps 730 mmHg 86%
23:00 +4°C° 0 mm 3 mps 729 mmHg 87%

Mañana, 25 Octubre, Domingo

Tiempo Temperatura Precipitaciones Viento Presión Humedad
00:00 +5°C° 0 mm 2 mps 729 mmHg 87%
01:00 +3°C° 0 mm 3 mps 729 mmHg 88%
02:00 +3°C° 0 mm 3 mps 728 mmHg 88%
03:00 +3°C° 0 mm 3 mps 728 mmHg 88%
04:00 +3°C° 0 mm 4 mps 728 mmHg 87%
05:00 +4°C° 0 mm 4 mps 727 mmHg 86%
06:00 +4°C° 0 mm 4 mps 727 mmHg 85%
07:00 +5°C° 0 mm 5 mps 727 mmHg 84%
08:00 +5°C° 0 mm 5 mps 727 mmHg 83%
09:00 +6°C° 0 mm 5 mps 728 mmHg 82%
10:00 +7°C° 0 mm 6 mps 728 mmHg 79%
11:00 +7°C° 0 mm 6 mps 728 mmHg 77%
12:00 +8°C° 0 mm 7 mps 728 mmHg 74%
13:00 +8°C° 0 mm 7 mps 728 mmHg 74%
14:00 +8°C° 0 mm 6 mps 728 mmHg 74%
15:00 +8°C° 0 mm 5 mps 728 mmHg 74%
16:00 +7°C° 0 mm 5 mps 729 mmHg 77%
17:00 +6°C° 0 mm 5 mps 729 mmHg 80%
18:00 +5°C° 0 mm 5 mps 729 mmHg 84%
19:00 +5°C° 0 mm 4 mps 729 mmHg 84%
20:00 +5°C° 0 mm 4 mps 729 mmHg 84%
21:00 +5°C° 0 mm 4 mps 729 mmHg 84%
22:00 +5°C° 0 mm 4 mps 729 mmHg 85%
23:00 +5°C° 0 mm 4 mps 729 mmHg 85%

Pasado mañana, 26 Octubre, Lunes

Tiempo Temperatura Precipitaciones Viento Presión Humedad
00:00 +5°C° 0 mm 4 mps 728 mmHg 86%
01:00 +5°C° 0 mm 4 mps 728 mmHg 87%
02:00 +5°C° 0 mm 4 mps 728 mmHg 88%
03:00 +5°C° 0 mm 4 mps 728 mmHg 89%
04:00 +5°C° 0 mm 4 mps 728 mmHg 90%
05:00 +5°C° 0 mm 4 mps 728 mmHg 90%
06:00 +5°C° 0 mm 4 mps 728 mmHg 90%
07:00 +6°C° 0 mm 4 mps 728 mmHg 89%
08:00 +7°C° 0 mm 3 mps 728 mmHg 88%
09:00 +8°C° 0 mm 3 mps 728 mmHg 87%
10:00 +8°C° 0.2 mm 3 mps 728 mmHg 85%
11:00 +9°C° 0.2 mm 3 mps 729 mmHg 83%
12:00 +8°C° 0.2 mm 4 mps 729 mmHg 81%
13:00 +9°C° 0.7 mm 3 mps 729 mmHg 83%
14:00 +9°C° 0.7 mm 3 mps 729 mmHg 84%
15:00 +9°C° 0.7 mm 2 mps 729 mmHg 85%
16:00 +8°C° 0.1 mm 2 mps 730 mmHg 87%
17:00 +7°C° 0.1 mm 2 mps 730 mmHg 90%
18:00 +6°C° 0.1 mm 2 mps 731 mmHg 92%
19:00 +6°C° 0 mm 2 mps 731 mmHg 91%
20:00 +5°C° 0 mm 2 mps 731 mmHg 91%
21:00 +5°C° 0 mm 2 mps 732 mmHg 90%
22:00 +5°C° 0 mm 2 mps 732 mmHg 90%
23:00 +5°C° 0 mm 2 mps 732 mmHg 90%

, 27 Octubre, Martes

Tiempo Temperatura Precipitaciones Viento Presión Humedad
00:00 +4°C° 0 mm 2 mps 732 mmHg 90%
01:00 +4°C° 0 mm 2 mps 733 mmHg 91%
02:00 +5°C° 0 mm 1 mps 733 mmHg 92%
03:00 +5°C° 0 mm 1 mps 733 mmHg 92%
04:00 +5°C° 0 mm 1 mps 733 mmHg 93%
05:00 +5°C° 0 mm 1 mps 733 mmHg 94%
06:00 +5°C° 0 mm 1 mps 733 mmHg 95%
07:00 +6°C° 0 mm 1 mps 733 mmHg 94%
08:00 +6°C° 0 mm 1 mps 732 mmHg 93%
09:00 +7°C° 0 mm 1 mps 732 mmHg 92%
10:00 +7°C° 0 mm 2 mps 732 mmHg 88%
11:00 +8°C° 0 mm 2 mps 731 mmHg 83%
12:00 +9°C° 0 mm 3 mps 730 mmHg 79%
13:00 +8°C° 0.5 mm 4 mps 729 mmHg 82%
14:00 +7°C° 0.5 mm 4 mps 729 mmHg 85%
15:00 +7°C° 0.5 mm 5 mps 728 mmHg 88%
16:00 +7°C° 1.7 mm 5 mps 727 mmHg 90%
17:00 +7°C° 1.7 mm 4 mps 727 mmHg 92%
18:00 +7°C° 1.7 mm 4 mps 727 mmHg 94%
19:00 +6°C° 0.3 mm 5 mps 727 mmHg 92%
20:00 +5°C° 0.3 mm 6 mps 727 mmHg 89%
21:00 +4°C° 0.3 mm 7 mps 727 mmHg 87%
22:00 +4°C° 0 mm 6 mps 727 mmHg 87%
23:00 +3°C° 0 mm 5 mps 727 mmHg 87%

27 Octubre, Martes

Tiempo Temperatura Precipitaciones Viento Presión Humedad
00:00 +4°C° 0 mm 2 mps 732 mmHg 90%
01:00 +4°C° 0 mm 2 mps 733 mmHg 91%
02:00 +5°C° 0 mm 1 mps 733 mmHg 92%
03:00 +5°C° 0 mm 1 mps 733 mmHg 92%
04:00 +5°C° 0 mm 1 mps 733 mmHg 93%
05:00 +5°C° 0 mm 1 mps 733 mmHg 94%
06:00 +5°C° 0 mm 1 mps 733 mmHg 95%
07:00 +6°C° 0 mm 1 mps 733 mmHg 94%
08:00 +6°C° 0 mm 1 mps 732 mmHg 93%
09:00 +7°C° 0 mm 1 mps 732 mmHg 92%
10:00 +7°C° 0 mm 2 mps 732 mmHg 88%
11:00 +8°C° 0 mm 2 mps 731 mmHg 83%
12:00 +9°C° 0 mm 3 mps 730 mmHg 79%
13:00 +8°C° 0.5 mm 4 mps 729 mmHg 82%
14:00 +7°C° 0.5 mm 4 mps 729 mmHg 85%
15:00 +7°C° 0.5 mm 5 mps 728 mmHg 88%
16:00 +7°C° 1.7 mm 5 mps 727 mmHg 90%
17:00 +7°C° 1.7 mm 4 mps 727 mmHg 92%
18:00 +7°C° 1.7 mm 4 mps 727 mmHg 94%
19:00 +6°C° 0.3 mm 5 mps 727 mmHg 92%
20:00 +5°C° 0.3 mm 6 mps 727 mmHg 89%
21:00 +4°C° 0.3 mm 7 mps 727 mmHg 87%
22:00 +4°C° 0 mm 6 mps 727 mmHg 87%
23:00 +3°C° 0 mm 5 mps 727 mmHg 87%

28 Octubre, Miércoles

Tiempo Temperatura Precipitaciones Viento Presión Humedad
00:00 +3°C° 0 mm 5 mps 727 mmHg 87%
01:00 +4°C° 0.1 mm 4 mps 726 mmHg 88%
02:00 +4°C° 0.1 mm 3 mps 726 mmHg 89%
03:00 +4°C° 0.1 mm 3 mps 725 mmHg 90%
04:00 +5°C° 0.1 mm 3 mps 725 mmHg 90%
05:00 +5°C° 0.1 mm 3 mps 725 mmHg 90%
06:00 +7°C° 0.1 mm 3 mps 725 mmHg 90%
07:00 +7°C° 0.1 mm 3 mps 724 mmHg 89%
08:00 +6°C° 0.1 mm 4 mps 724 mmHg 89%
09:00 +7°C° 0.1 mm 4 mps 724 mmHg 88%
10:00 +8°C° 0.1 mm 5 mps 723 mmHg 85%
11:00 +8°C° 0.1 mm 5 mps 723 mmHg 81%
12:00 +9°C° 0.1 mm 6 mps 723 mmHg 77%
13:00 +9°C° 0.2 mm 6 mps 722 mmHg 81%
14:00 +8°C° 0.2 mm 6 mps 721 mmHg 84%
15:00 +8°C° 0.2 mm 6 mps 720 mmHg 87%
16:00 +8°C° 0.2 mm 6 mps 720 mmHg 87%
17:00 +8°C° 0.2 mm 6 mps 719 mmHg 87%
18:00 +8°C° 0.2 mm 6 mps 718 mmHg 87%
19:00 +8°C° 0.4 mm 5 mps 719 mmHg 89%
20:00 +7°C° 0.4 mm 4 mps 719 mmHg 91%
21:00 +7°C° 0.4 mm 4 mps 720 mmHg 93%
22:00 +7°C° 0.5 mm 5 mps 721 mmHg 92%
23:00 +7°C° 0.5 mm 6 mps 722 mmHg 90%

29 Octubre, Jueves

Tiempo Temperatura Precipitaciones Viento Presión Humedad
00:00 +6°C° 0.5 mm 7 mps 723 mmHg 89%
01:00 +6°C° 0 mm 7 mps 725 mmHg 88%
02:00 +5°C° 0 mm 7 mps 726 mmHg 88%
03:00 +5°C° 0 mm 6 mps 727 mmHg 88%
04:00 +5°C° 0 mm 6 mps 728 mmHg 89%
05:00 +6°C° 0 mm 5 mps 729 mmHg 90%
06:00 +6°C° 0 mm 5 mps 730 mmHg 91%
07:00 +6°C° 0.1 mm 5 mps 730 mmHg 90%
08:00 +6°C° 0.1 mm 5 mps 730 mmHg 88%
09:00 +7°C° 0.1 mm 5 mps 729 mmHg 87%
10:00 +7°C° 0.8 mm 5 mps 729 mmHg 88%
11:00 +7°C° 0.8 mm 4 mps 729 mmHg 89%
12:00 +9°C° 0.8 mm 3 mps 729 mmHg 90%
13:00 +8°C° 0.2 mm 4 mps 728 mmHg 87%
14:00 +8°C° 0.2 mm 4 mps 728 mmHg 85%
15:00 +9°C° 0.2 mm 5 mps 728 mmHg 83%
16:00 +8°C° 0.1 mm 6 mps 729 mmHg 83%
17:00 +8°C° 0.1 mm 7 mps 729 mmHg 83%
18:00 +8°C° 0.1 mm 7 mps 729 mmHg 83%
19:00 +8°C° 0.1 mm 7 mps 730 mmHg 83%
20:00 +7°C° 0.1 mm 8 mps 730 mmHg 83%
21:00 +7°C° 0.1 mm 8 mps 730 mmHg 83%
22:00 +6°C° 0.2 mm 8 mps 731 mmHg 84%
23:00 +6°C° 0.2 mm 7 mps 732 mmHg 85%
Mostrar más

Necesitamos Su Consentimiento

Meteoprog y nuestros Proveedores de Servicios pueden almacenar y acceder a sus datos personales como cookies, identificadores de dispositivo u otras tecnologías similares de su dispositivo y procesar dichos datos para personalizar contenido y anuncios, además de ofrecer funciones de redes sociales y analizar el tráfico.

  • Almacenar y/o acceder a información en su dispositivo

    Se puede almacenar o acceder a cookies, identificadores de dispositivo u otra información de su dispositivo para los fines anteriormente indicados.

  • Anuncios y contenido personalizados, medición de anuncios y contenido, percepciones del público, y desarrollo de productos

    Los anuncios y el contenido pueden personalizarse en base a su perfil. Se pueden añadir más datos para personalizar mejor los anuncios y contenidos. Se puede medir el rendimiento de los anuncios y contenidos. Se puede obtener la percepción sobre el público que ha visto los anuncios y contenidos. Dichos datos pueden usarse para desarrollar o mejorar la experiencia del usuario, sistemas y software.

Al hacer clic en ‘Estoy De Acuerdo’ usted permitirá el uso de las cookies, identificadores de dispositivo, balizas web u otras tecnologías similares indicadas. Su configuración puede cambiarse desde el navegador de su dispositivo.

Para ciertos fines, los intereses legítimos pueden ser considerados por encima del consentimiento. Puede leer más sobre ello en nuestra Política de Privacidad y Cookies.